Wind_Speed
11 14 15 14 16 18 20 24 28 31 30 30 33 34 35 37 34 31 36 40 41 45 42 36 32 25 19 17 16 16 15 11 12 12 11 11 11 13 15 16 17 18 18 18 16 12 9 14 23 26 26 28 30 31 31 30 29 30 31 32 32 32 33 33 34 32 30 30 30 30 29 29 28 27 26 25 25 25 27 29 32 34 34 35 35 35 36
8 9 13 15 16 17 19 23 27 31 33 32 31 32 36 40 41 40 40 39 40 43 41 39 37 34 32 31 29 25 19 15 13 12 13 13 14 14 13 14 15 16 19 20 19 16 13 11 18 24 26 28 31 31 30 30 31 32 33 33 33 34 34 35 34 32 31 31 31 32 32 31 31 30 28 27 26 26 26 28 32 34 35 36 37 37 37
10 8 9 12 15 17 21 24 27 29 31 33 33 32 33 35 37 41 42 41 44 44 39 36 35 35 35 36 33 28 24 22 21 20 20 19 18 18 15 13 13 14 18 22 20 19 16 12 14 21 26 28 30 31 30 30 31 32 34 35 34 35 35 35 34 32 31 32 32 33 33 33 33 32 30 29 29 28 27 27 31 34 36 37 38 39 39
11 9 8 12 15 16 20 26 31 32 32 34 33 33 32 31 30 35 38 40 42 42 37 35 34 33 33 33 32 32 32 31 30 29 28 24 20 19 17 17 14 11 15 21 21 19 18 17 16 19 24 29 30 31 31 30 31 32 34 34 34 34 35 35 34 32 32 33 33 33 34 34 34 34 33 32 31 30 29 28 30 33 37 38 39 40 40
10 11 9 10 11 13 16 22 29 35 37 37 35 35 34 31 28 29 30 31 36 38 35 34 35 34 32 31 32 33 34 33 33 32 30 27 23 20 18 20 19 15 14 17 19 19 18 20 21 20 23 28 29 29 29 29 30 32 32 33 33 34 34 34 34 33 32 32 33 34 35 34 34 34 34 35 35 33 32 30 30 33 37 39 39 40 41
9 13 12 10 10 9 8 11 19 27 32 36 39 40 40 37 34 31 27 27 31 32 29 28 29 31 32 31 29 29 29 30 31 31 29 28 25 22 20 21 23 21 17 15 17 18 16 19 24 24 25 27 29 29 29 29 30 30 29 30 31 32 33 33 33 32 32 32 33 34 33 33 34 34 35 37 38 36 34 33 32 33 36 39 40 40 41
9 12 11 7 8 9 7 8 13 15 18 24 30 33 36 39 40 40 38 36 33 29 26 23 22 24 27 28 28 27 27 27 28 29 29 28 25 23 22 23 25 24 20 16 16 17 17 18 23 27 27 27 28 30 30 29 28 27 26 26 28 29 31 31 31 30 30 30 31 32 32 32 33 35 36 38 39 39 37 36 34 34 35 38 40 41 42
8 8 9 8 6 4 9 10 11 11 13 16 18 19 22 26 32 37 41 41 38 36 33 28 22 21 23 25 28 28 26 27 28 28 28 27 25 22 22 24 26 26 22 19 17 17 20 21 22 26 29 28 28 30 31 30 30 28 27 26 27 29 29 29 29 29 29 29 29 29 29 31 33 34 35 38 39 40 40 38 37 36 36 38 40 42 43
12 11 14 17 15 10 13 15 12 11 14 15 16 17 18 21 25 28 30 31 33 35 36 32 27 24 24 26 27 27 26 26 26 26 26 25 24 22 21 23 27 27 23 21 19 18 21 24 23 24 27 29 28 28 29 29 30 31 32 30 29 30 30 29 28 28 28 27 26 27 29 30 32 33 35 37 38 40 41 41 40 39 38 39 40 42 44
15 15 14 15 14 13 16 19 17 15 15 14 15 17 19 23 26 27 27 26 25 27 29 30 29 28 30 30 25 22 22 22 22 23 23 24 24 22 19 21 26 30 26 23 21 19 21 27 28 26 26 27 27 28 28 27 27 30 33 33 32 31 32 31 29 27 26 25 25 27 28 29 31 33 34 35 36 37 40 42 42 41 41 41 41 42 44
16 18 16 14 12 9 8 10 14 15 13 12 14 15 19 25 27 27 27 26 24 24 24 26 29 32 36 32 22 18 19 19 19 20 21 23 23 20 18 18 23 29 30 27 23 20 21 27 30 31 29 28 27 28 28 27 27 28 29 31 32 33 33 33 30 27 27 26 25 24 22 23 27 30 31 33 34 35 37 38 39 40 42 43 43 43 43
18 19 18 18 17 15 14 12 11 12 10 9 10 9 10 15 19 21 24 25 25 25 24 23 27 32 34 29 22 21 21 20 20 20 20 22 23 21 18 17 19 25 29 29 26 22 21 25 29 31 32 31 30 29 28 28 27 27 26 27 29 32 33 32 31 30 30 29 27 23 21 20 22 23 26 29 31 32 34 33 32 33 36 41 44 46 45
22 20 20 20 18 21 24 21 16 16 13 10 11 11 6 7 11 12 15 19 23 26 27 26 26 28 29 27 25 25 24 22 21 21 21 22 23 22 21 18 17 20 24 27 27 24 22 23 26 28 30 31 32 33 33 32 29 26 27 28 29 29 30 31 32 32 30 27 25 23 22 21 21 21 22 24 27 29 31 31 31 31 32 34 39 45 48
23 20 20 18 17 21 27 26 22 22 18 12 15 17 14 15 18 16 14 15 18 22 26 28 27 26 26 26 26 27 26 23 21 22 22 22 23 24 23 21 18 18 20 22 24 25 24 25 25 24 24 26 27 29 31 31 28 26 27 29 30 30 31 31 32 30 27 26 26 24 23 23 22 22 22 24 26 28 29 31 33 34 35 36 38 44 50
22 20 17 13 12 17 23 27 26 25 22 21 22 22 20 21 23 22 21 20 20 21 24 26 27 27 26 26 27 27 27 24 23 24 23 23 23 24 24 23 20 18 19 21 23 25 26 27 27 26 23 22 23 25 26 26 26 26 26 27 29 31 32 32 29 27 27 28 28 26 24 24 24 24 25 27 29 29 29 31 32 34 35 38 41 45 50
19 19 19 17 11 7 10 21 29 29 26 25 26 24 22 22 22 23 24 24 24 24 24 24 25 26 27 26 27 28 27 25 25 25 25 24 24 24 23 23 21 19 20 22 24 26 28 29 29 28 25 23 23 24 25 25 26 26 27 28 29 30 32 31 28 29 31 32 31 30 29 29 29 28 27 28 30 31 30 30 32 33 34 36 39 42 46
18 20 23 22 15 9 10 19 27 30 29 27 25 23 23 22 22 24 26 26 25 25 26 25 25 27 27 27 27 30 29 27 26 27 27 26 26 25 24 24 23 22 22 23 24 25 27 28 28 27 26 25 25 26 26 26 26 27 28 29 30 30 31 31 30 32 34 34 34 34 34 34 33 31 29 30 31 32 32 32 32 33 34 36 37 37 40
20 25 30 29 20 15 17 19 22 27 31 28 24 23 22 22 23 25 28 28 27 27 29 28 28 30 29 26 27 30 30 28 28 29 29 28 27 26 26 26 25 25 24 24 25 26 26 26 27 27 27 27 28 28 28 27 27 28 28 28 29 29 30 31 32 33 34 34 35 36 36 36 36 35 35 35 34 34 35 36 36 36 37 38 39 39 40
21 24 30 32 27 22 20 19 20 26 30 28 23 22 22 21 23 25 27 27 27 28 30 29 29 31 29 25 25 28 29 29 30 30 30 29 28 27 27 26 26 27 26 27 27 28 29 29 29 29 29 29 29 30 29 28 28 28 28 27 27 28 28 29 30 31 31 31 32 34 35 36 37 38 39 39 39 39 40 41 42 42 41 41 42 43 44
25 26 25 28 30 29 24 20 18 21 25 26 22 20 20 20 21 22 20 19 20 23 26 26 25 26 27 27 27 28 29 30 31 31 30 29 28 26 26 25 26 27 28 29 30 30 31 30 29 29 28 28 28 29 29 28 28 28 28 27 27 27 27 28 29 30 31 32 33 35 36 38 39 40 41 43 44 45 45 47 47 47 47 46 47 48 47
28 30 27 25 27 30 29 25 21 19 20 23 24 23 20 18 19 20 16 14 16 20 23 25 26 26 28 29 30 30 30 31 32 31 31 30 29 27 26 26 27 28 29 30 30 31 31 30 29 28 28 27 28 28 28 28 28 28 29 29 28 28 28 29 29 30 31 33 34 36 38 39 40 41 42 44 45 46 47 49 50 51 51 50 51 52 52
28 31 29 26 26 27 27 26 26 23 19 20 25 27 23 15 16 18 17 15 17 20 23 25 26 28 30 31 31 30 29 29 30 31 30 30 29 28 27 27 27 28 28 28 28 28 28 28 28 27 27 27 27 28 28 28 28 29 29 30 30 30 31 31 32 33 34 35 36 38 39 40 42 43 43 44 46 47 48 49 50 52 53 54 55 56 57
30 33 32 30 29 27 23 21 24 26 21 18 22 26 24 17 14 15 16 15 15 17 20 22 23 26 29 31 31 30 28 27 28 28 28 27 26 24 24 24 25 26 27 27 27 26 26 26 26 26 25 26 26 27 28 28 29 30 30 31 32 32 33 34 35 36 37 39 40 42 43 44 45 45 46 47 48 49 50 51 52 53 55 57 58 58 60
31 34 34 33 32 31 25 20 22 23 20 19 20 21 22 19 14 13 15 15 14 16 18 18 20 22 25 28 29 28 26 25 25 25 25 24 22 20 20 21 22 23 24 24 24 25 24 25 25 26 26 26 26 27 28 28 29 30 31 32 33 34 34 36 37 38 39 41 43 44 45 46 47 47 48 49 49 50 51 53 55 56 58 60 60 59 61
30 32 33 32 32 31 26 23 25 24 19 19 22 20 18 18 15 13 13 15 15 16 17 18 18 19 21 23 25 23 22 21 21 22 22 22 20 18 18 18 18 19 20 20 20 21 21 22 23 24 25 25 26 26 27 27 28 29 30 31 33 33 35 36 37 39 41 43 45 46 46 47 48 48 49 50 51 52 52 54 56 58 60 62 63 63 65
27 28 27 30 33 31 25 23 27 27 21 20 24 24 21 17 15 14 15 16 17 17 18 19 18 17 19 21 20 19 17 17 17 18 19 19 18 16 15 16 16 17 17 18 18 19 19 20 22 23 24 24 25 25 26 28 29 31 31 32 33 35 36 37 38 39 40 40 41 43 43 44 45 46 47 48 50 51 53 54 55 57 59 62 64 67 70
25 25 24 30 35 33 27 24 26 26 23 20 23 27 28 21 14 15 18 18 19 17 16 17 17 16 17 19 18 16 15 13 13 14 15 14 12 11 12 13 14 15 15 16 16 17 18 19 20 21 23 24 25 26 28 30 32 33 34 34 35 35 36 36 36 36 36 36 37 37 38 39 39 40 40 41 42 43 44 45 46 48 50 53 57 62 67
23 23 23 30 35 33 29 27 26 25 23 20 22 29 35 29 17 15 20 20 18 15 14 14 13 13 13 15 16 15 13 11 10 10 10 9 8 8 9 10 11 12 13 14 14 15 16 18 19 20 21 23 24 26 28 30 31 31 31 32 32 32 32 32 32 32 32 32 32 32 32 33 33 32 32 32 33 33 34 35 37 39 42 47 52 57 63
16 20 23 28 31 30 28 27 26 25 22 21 22 28 36 33 21 15 18 20 17 13 10 8 8 8 9 10 12 13 12 10 9 9 7 6 6 7 7 8 9 10 11 12 13 15 16 17 18 18 19 20 22 23 24 26 26 27 27 27 27 26 26 25 25 25 24 24 24 24 25 25 24 23 24 26 28 30 32 33 35 38 43 48 51 53 58
11 18 23 25 26 26 25 25 26 24 22 22 20 22 29 34 28 20 15 14 12 8 5 4 4 5 5 6 9 11 11 10 9 9 8 7 7 7 7 8 8 8 9 11 12 13 14 15 15 16 16 17 18 18 18 19 20 21 21 21 20 19 17 17 16 16 17 18 19 20 20 20 19 20 23 26 28 31 33 35 36 39 46 50 52 54 55
11 16 19 21 25 28 26 22 22 23 22 20 18 18 22 29 33 31 26 19 12 6 5 3 2 2 2 4 5 8 10 9 8 8 8 8 7 7 7 7 7 7 8 9 10 11 11 12 12 13 13 13 13 13 12 12 13 14 15 15 14 13 12 12 12 13 14 16 17 18 18 19 20 22 24 26 27 29 31 34 35 38 44 49 49 45 36
12 17 19 22 25 27 24 19 18 19 19 18 18 19 19 21 25 28 28 23 17 13 12 9 6 4 6 8 7 7 8 8 8 8 8 7 6 6 6 7 7 7 8 8 8 8 9 9 9 10 10 10 10 8 8 8 8 9 10 10 10 10 11 11 12 13 14 15 16 18 19 19 20 21 21 22 24 26 28 31 33 35 40 42 40 34 19
12 16 19 21 23 23 22 19 17 17 15 15 16 18 18 18 18 19 20 18 14 13 13 12 10 9 10 11 11 9 8 7 7 7 6 5 5 4 5 5 6 7 7 6 6 6 6 6 6 6 7 7 7 7 7 7 7 7 8 8 9 10 11 12 13 13 14 16 17 18 19 18 17 16 16 18 20 22 25 28 30 32 35 33 28 28 27
12 13 15 18 20 20 19 18 17 16 16 15 17 17 17 16 15 16 17 16 15 14 15 15 13 12 12 12 11 9 8 7 6 5 5 5 5 6 6 6 6 7 6 6 5 4 4 4 3 3 3 3 5 6 7 8 9 9 9 10 11 11 12 13 13 13 14 15 16 17 18 17 15 14 14 14 16 18 21 23 25 27 30 28 24 23 25
12 13 14 16 18 19 18 19 20 18 17 17 18 17 15 15 16 17 18 18 18 17 17 16 15 14 12 11 10 8 7 6 5 6 6 7 8 9 9 9 9 10 9 9 8 7 6 5 4 3 3 3 4 6 7 8 9 9 10 10 11 12 12 13 14 14 14 15 15 15 15 15 14 13 12 11 12 15 17 19 21 22 24 24 23 22 21
11 12 14 16 17 18 18 20 21 20 17 17 17 17 16 16 17 18 18 18 18 17 17 16 16 14 13 11 10 9 7 7 7 8 8 9 9 10 10 10 11 11 11 11 10 9 8 7 7 6 6 5 6 7 7 8 9 9 9 9 9 10 10 11 13 14 15 14 14 13 13 12 12 12 12 10 9 11 13 15 16 18 18 19 19 19 17
13 12 13 16 18 17 17 18 18 17 16 16 16 17 17 18 18 18 18 18 17 18 18 17 15 14 13 12 11 10 9 9 9 9 9 9 8 9 9 9 9 10 11 11 10 10 10 9 9 9 8 8 8 8 9 9 9 10 10 10 9 10 10 11 12 13 14 13 14 13 13 12 12 13 13 11 9 8 10 11 11 11 12 13 13 13 13
18 17 17 19 18 17 17 18 17 15 15 17 18 19 19 19 20 20 21 20 19 19 19 17 15 13 13 13 12 12 11 11 10 8 8 7 7 7 7 7 8 8 8 7 6 7 8 9 9 10 10 10 11 11 12 12 11 11 10 10 10 10 11 10 11 12 12 12 12 12 13 13 14 14 14 14 13 10 9 8 9 8 6 5 6 6 6
21 21 22 24 23 21 20 21 19 17 17 19 21 23 22 22 21 22 23 22 21 20 19 17 15 15 15 15 14 14 13 12 11 10 9 8 7 6 6 7 7 7 6 4 3 2 4 5 6 8 8 9 10 11 12 13 14 14 13 13 13 13 13 12 12 14 15 15 15 15 15 15 15 16 17 18 17 15 13 11 10 9 6 3 1 1 2
22 19 20 22 23 22 21 21 20 20 20 21 21 21 21 21 22 23 24 24 22 20 18 18 19 20 19 18 18 17 16 14 13 12 11 10 8 7 6 7 8 8 7 5 3 1 1 1 3 4 5 5 6 7 8 9 10 12 13 14 14 15 15 15 15 16 17 18 18 18 18 17 16 16 18 18 17 16 15 13 12 11 9 6 6 6 6
31 25 22 23 24 25 26 24 23 23 22 20 20 20 21 22 25 27 27 26 24 22 23 24 24 24 23 21 20 19 18 15 14 13 11 10 9 7 7 7 9 9 7 5 3 1 1 1 2 2 3 3 3 4 4 4 5 6 7 8 9 10 11 11 11 12 13 14 15 15 16 16 15 14 14 15 15 16 16 14 13 14 14 11 9 9 12
39 36 34 34 35 33 31 29 29 30 30 29 29 29 29 30 31 31 30 28 27 28 29 28 26 25 23 21 20 19 18 16 14 11 9 9 9 7 6 7 8 8 6 4 3 2 1 1 1 1 1 1 2 2 2 2 3 3 4 4 5 5 6 7 8 8 10 11 12 13 13 13 13 12 12 13 14 15 16 16 16 17 18 17 14 13 14
39 39 39 39 39 39 36 34 33 33 33 32 32 31 32 32 32 32 30 29 29 29 28 26 24 22 20 18 17 17 16 14 12 10 8 7 7 6 6 6 7 6 4 3 2 0 1 1 2 2 2 2 2 2 2 2 3 3 3 3 3 3 4 4 5 7 8 9 11 12 12 13 12 11 11 11 11 12 14 17 18 18 19 20 21 20 18
36 37 37 37 36 36 36 35 33 32 31 31 30 30 29 28 27 26 25 25 25 24 23 22 21 19 17 16 15 14 13 12 10 9 7 6 4 4 5 6 5 4 3 2 2 2 3 3 3 3 4 4 4 3 3 3 3 3 3 3 2 2 2 2 3 4 5 7 8 9 10 11 11 10 10 10 10 10 11 13 17 19 19 19 21 23 22
31 32 32 31 31 31 31 30 30 29 29 28 27 26 26 25 24 22 21 20 20 20 19 18 17 17 15 15 14 14 13 12 10 8 6 4 3 3 5 6 5 4 3 3 4 4 4 4 4 4 5 5 6 6 6 6 5 5 5 4 4 4 3 3 2 3 4 5 6 7 7 8 8 9 10 11 12 12 12 12 14 16 17 17 17 20 23
26 27 27 27 27 27 27 27 26 25 24 23 22 23 22 21 19 18 17 16 15 15 14 13 13 13 13 13 12 11 11 10 8 7 6 5 4 5 6 5 4 4 4 4 5 5 5 6 6 6 7 7 8 8 8 8 8 7 7 6 6 6 6 6 5 4 4 4 5 6 6 6 6 7 7 8 9 9 11 11 11 11 12 13 16 19 22
22 23 23 23 24 24 23 22 21 19 18 18 19 19 18 17 16 15 14 13 12 11 10 10 10 10 10 10 10 9 8 8 8 7 6 6 6 6 5 4 3 3 3 4 5 6 7 7 7 8 8 9 9 10 10 10 10 10 9 9 8 8 8 8 7 7 6 6 5 5 5 6 6 6 5 5 5 6 6 7 7 8 7 9 16 22 24
19 19 19 19 19 18 17 16 16 15 15 15 15 14 13 13 12 11 11 10 10 10 9 9 9 9 9 9 9 9 9 9 8 7 6 6 6 6 6 5 5 5 6 7 8 8 7 8 8 9 9 10 11 11 11 11 11 11 11 11 11 10 10 9 9 9 9 8 7 6 6 6 6 6 6 6 5 5 4 4 5 5 5 8 15 22 25
16 15 13 13 13 12 12 12 13 12 12 12 11 9 8 8 8 8 7 7 7 7 7 8 8 8 8 8 9 9 9 8 8 7 7 7 8 8 8 8 8 8 9 9 9 9 9 9 9 9 9 10 11 12 12 13 13 12 12 12 12 12 12 11 11 11 11 11 10 9 8 7 7 6 7 7 7 7 6 6 6 5 6 7 11 15 19
15 12 10 10 10 11 11 11 11 11 10 9 8 7 6 5 5 5 5 5 5 5 6 6 7 7 7 7 8 8 8 8 8 8 8 8 9 9 9 9 10 10 10 11 11 12 12 11 11 11 11 11 11 11 12 12 13 14 14 14 14 14 14 13 13 13 13 13 13 12 12 10 9 8 7 7 8 8 8 8 8 7 6 6 9 11 13
15 14 13 12 12 12 11 11 10 10 9 8 6 5 4 4 4 5 5 5 6 6 6 7 7 7 7 7 7 7 8 8 8 8 8 9 9 10 10 11 11 11 11 12 12 13 13 14 14 14 14 14 14 13 13 13 13 13 14 15 15 16 16 16 15 15 15 14 14 14 13 12 12 11 10 9 8 9 9 10 10 10 9 8 9 10 11
16 15 14 12 11 11 10 10 9 9 7 6 5 4 3 3 3 3 4 5 6 6 6 6 6 7 7 7 7 7 8 9 9 9 10 10 11 11 11 11 11 12 12 12 12 13 14 14 15 15 16 16 16 16 16 16 16 15 15 15 15 16 16 17 17 17 17 17 16 16 15 15 14 13 13 12 11 10 11 12 12 13 12 12 12 12 12
Wind_Direction
224 217 210 209 216 221 221 219 219 219 219 220 223 224 228 229 228 236 243 242 245 250 251 251 251 250 250 244 245 263 275 266 256 254 247 243 247 258 271 276 269 260 258 257 258 259 244 224 223 225 224 220 218 218 218 218 218 219 218 217 217 218 220 222 224 224 224 229 235 239 241 242 243 245 245 246 245 243 239 232 227 226 227 230 231 230 226
234 212 214 226 234 238 235 226 221 221 220 221 225 227 229 232 235 241 246 248 250 254 257 258 258 258 258 255 258 266 266 254 247 245 243 247 258 269 281 285 273 260 257 259 259 257 249 229 221 222 223 221 218 218 219 219 218 217 216 215 215 217 221 223 224 223 223 227 231 235 239 241 243 244 245 246 246 245 242 236 230 227 227 228 230 230 227
254 222 213 229 237 245 247 238 229 226 225 226 228 230 230 233 237 241 245 249 252 254 259 263 264 265 265 263 264 261 252 244 243 248 256 266 271 271 274 276 268 256 255 259 261 259 254 245 230 223 222 220 218 219 220 219 219 218 217 217 217 219 222 223 223 222 223 227 230 233 237 240 242 243 244 246 246 246 245 240 233 229 228 228 229 230 229
269 246 235 242 248 257 258 247 236 232 232 233 233 234 235 236 239 243 244 248 252 254 258 263 266 267 267 265 262 258 254 251 253 258 266 273 277 272 264 257 250 242 245 252 258 257 249 243 238 229 224 221 218 219 220 220 220 220 220 220 220 221 223 223 223 222 222 226 229 232 236 238 240 242 244 246 246 245 244 242 238 233 230 229 229 230 231
275 261 262 274 279 274 261 248 240 237 237 240 242 241 239 239 242 246 248 251 254 257 259 262 264 266 265 263 263 264 263 262 263 266 269 273 275 272 262 252 246 243 240 243 248 252 246 236 233 231 225 221 218 218 219 220 221 222 223 223 223 223 223 223 222 222 222 224 227 231 234 236 237 239 242 246 247 245 244 243 241 236 232 231 230 230 232
277 267 274 296 289 263 241 233 237 239 241 244 246 246 245 244 245 248 253 256 256 257 260 262 264 264 264 264 267 270 270 268 267 267 270 273 274 272 265 255 249 246 242 238 240 244 244 234 229 228 225 219 217 216 216 217 220 222 223 224 225 226 227 226 225 224 223 224 227 231 233 235 236 237 240 244 246 245 244 243 242 240 236 233 231 231 232
272 277 278 278 258 236 206 211 230 237 242 245 248 251 252 251 251 253 254 254 252 253 257 262 267 266 263 261 262 265 267 268 268 268 270 272 271 270 267 258 248 243 240 238 238 239 242 237 228 226 227 221 217 217 217 218 220 222 223 223 224 227 228 229 230 230 228 228 229 233 235 236 237 238 238 240 243 244 244 243 242 242 240 236 233 232 233
247 262 242 231 257 232 192 218 247 247 244 250 254 255 252 249 251 253 253 253 253 254 256 260 263 266 264 259 254 255 259 263 266 268 269 269 267 265 263 256 246 240 238 238 237 238 242 241 231 227 229 226 221 220 221 222 224 226 226 224 223 225 227 228 230 231 232 233 234 237 239 239 239 240 239 240 242 243 244 244 243 243 242 239 236 234 233
227 238 242 251 276 274 232 239 260 252 245 251 255 255 250 243 245 248 249 252 254 255 257 257 255 259 265 260 251 248 253 258 262 265 265 264 264 261 260 255 245 238 236 236 237 239 242 240 233 228 229 230 229 227 226 226 226 227 227 226 225 228 231 231 231 233 235 238 242 243 243 242 240 240 241 242 242 243 245 246 245 244 243 243 240 236 235
224 232 250 259 266 262 247 248 253 250 250 256 261 269 264 250 245 246 246 248 251 253 256 254 249 252 259 258 249 245 252 258 262 262 259 257 258 258 259 259 248 239 237 236 236 240 242 238 235 234 234 234 234 232 230 230 230 228 227 226 227 231 235 235 236 239 241 245 250 249 248 247 245 242 242 243 244 244 246 248 249 247 245 245 243 241 239
222 219 231 241 239 232 224 228 235 237 246 264 278 286 275 258 251 250 248 247 248 249 252 251 247 249 253 254 247 244 255 263 265 264 258 251 252 254 258 260 251 242 240 238 237 241 244 241 239 239 239 238 235 233 232 234 235 232 227 226 228 232 236 236 237 241 244 247 251 251 250 253 252 247 244 243 244 244 246 249 252 253 251 249 246 243 242
226 221 230 242 243 235 223 218 224 228 238 271 282 277 267 257 254 253 251 249 248 246 247 247 246 249 253 255 248 244 252 262 267 269 263 251 249 254 256 255 250 244 243 241 240 242 243 239 237 237 237 237 235 233 234 239 241 238 233 230 230 231 232 234 239 244 247 250 251 247 245 251 254 250 245 242 242 243 244 246 249 253 256 255 251 248 245
226 226 236 246 252 249 239 235 244 254 260 270 258 243 242 248 249 252 251 247 246 245 245 246 248 251 254 253 247 243 247 256 263 268 265 255 250 254 257 254 247 242 241 241 241 241 236 228 226 227 228 230 231 230 233 240 244 243 238 235 232 230 230 233 238 242 244 245 243 240 239 241 242 241 243 245 244 244 244 244 244 247 252 256 256 253 248
223 226 237 249 259 256 244 236 245 260 263 258 251 254 260 256 252 252 248 245 248 248 245 246 250 252 252 249 245 242 243 250 257 261 261 257 253 254 258 258 251 241 237 237 239 239 232 223 222 224 224 225 228 229 231 236 239 239 239 237 236 236 237 237 238 237 235 233 233 234 234 232 232 238 244 247 247 246 244 244 244 245 246 248 252 253 251
221 225 233 244 257 260 248 238 241 252 256 256 260 266 269 264 257 254 250 248 249 250 247 246 247 248 248 247 242 238 238 242 249 251 252 253 254 255 257 257 254 246 240 237 236 235 231 227 227 232 234 233 233 233 233 235 236 238 240 240 239 240 242 242 239 233 228 227 229 233 234 235 239 245 245 244 245 244 242 242 244 245 245 246 248 250 251
215 221 223 222 231 257 248 235 238 247 254 260 267 271 273 270 260 252 250 248 246 246 246 244 243 242 242 242 239 235 233 235 239 241 240 241 247 251 252 252 252 249 247 246 240 231 226 226 229 234 237 236 237 238 239 239 240 241 243 243 241 240 241 242 236 225 221 224 229 233 234 236 240 242 242 240 239 239 239 241 244 245 247 249 249 248 249
219 227 224 217 214 201 195 214 231 241 249 257 266 271 273 269 256 247 246 246 243 241 240 240 240 237 235 237 239 236 233 230 230 230 230 231 235 239 241 245 248 249 250 252 248 236 225 223 227 230 232 233 236 239 240 239 240 242 242 242 241 239 238 236 229 221 220 224 229 232 233 235 238 241 245 244 241 239 239 242 246 250 252 252 252 253 252
237 235 227 219 212 204 204 212 225 237 245 254 265 274 276 268 252 242 241 241 240 236 234 234 234 231 228 230 234 235 232 228 224 222 221 223 225 226 229 234 239 244 246 249 251 248 241 235 233 234 237 237 238 240 241 240 240 241 241 241 241 240 237 233 229 228 229 231 234 237 240 242 245 248 250 250 248 244 242 242 247 252 253 253 253 253 254
255 244 230 221 216 212 213 219 226 237 245 251 260 275 282 272 250 237 236 238 235 231 229 226 225 226 224 219 219 224 226 222 218 216 216 216 216 216 218 222 227 233 238 242 244 248 249 247 244 242 243 243 242 242 244 244 243 242 242 242 242 242 241 238 238 241 244 246 248 250 252 254 255 256 255 255 255 253 251 250 250 251 250 251 251 252 252
257 250 235 222 218 217 218 216 215 228 241 245 250 268 283 271 243 227 225 226 220 216 215 213 211 215 216 210 204 206 211 213 211 210 210 210 210 211 212 215 219 225 230 234 236 238 242 244 243 242 242 242 241 242 244 245 244 243 243 244 244 244 245 245 247 250 253 255 257 258 259 260 261 261 260 258 257 257 256 255 255 254 252 251 250 250 251
258 248 234 222 220 221 221 218 213 217 231 240 245 257 268 256 226 209 201 195 188 185 187 189 190 194 199 201 198 195 198 204 206 205 205 205 205 206 209 212 215 220 223 226 228 230 232 235 236 236 236 237 238 239 241 242 243 243 244 246 247 248 250 251 252 254 255 256 257 258 258 259 259 259 259 259 258 257 257 256 256 256 256 254 252 251 251
255 242 232 230 231 226 220 220 222 223 230 244 250 253 252 234 206 195 188 182 179 176 174 176 180 183 186 190 192 191 191 196 201 203 202 203 203 204 207 210 214 217 220 222 224 225 227 229 232 234 235 237 238 240 242 244 245 246 248 249 250 252 254 255 256 257 257 258 259 259 259 259 259 260 260 260 261 261 260 260 260 260 260 260 258 255 253
246 234 229 233 237 233 225 221 223 225 227 235 247 253 250 231 199 182 178 176 178 178 173 170 173 178 182 184 187 189 190 192 197 201 200 200 202 203 206 211 215 218 221 223 225 227 229 231 233 235 237 239 241 243 246 248 249 251 253 254 255 256 256 257 258 259 260 261 261 262 262 261 261 261 260 261 262 263 263 263 263 263 262 262 261 259 257
244 234 229 231 235 235 232 222 217 220 222 222 230 246 247 230 200 170 166 171 173 172 169 164 163 167 173 177 179 182 184 185 189 194 196 198 199 201 206 211 215 219 223 226 229 233 236 238 240 242 244 246 247 248 249 250 252 253 253 254 256 256 257 257 257 258 259 259 260 260 261 261 261 261 261 261 262 264 264 265 265 264 264 264 263 263 262
249 239 230 229 232 233 231 226 221 221 221 221 223 229 227 211 189 171 167 167 165 163 161 159 156 156 160 166 168 169 172 175 180 185 190 193 195 198 205 210 214 218 222 226 230 233 236 240 243 245 247 248 250 252 253 254 254 254 254 254 254 255 255 255 256 256 256 257 258 259 261 262 263 264 265 265 266 266 267 267 268 268 268 267 267 266 265
247 242 229 224 227 226 222 224 229 228 225 225 227 225 216 195 174 171 176 168 157 155 156 154 150 146 147 153 154 155 158 164 171 178 184 188 191 197 204 210 215 219 222 225 228 230 231 234 235 237 240 242 245 248 250 251 252 252 252 252 252 253 253 253 254 256 257 258 260 261 263 264 265 266 267 268 268 269 269 269 269 269 270 270 269 268 266
236 234 219 216 222 224 221 222 226 223 220 224 227 221 214 205 188 180 178 163 143 138 142 144 141 137 136 140 140 141 145 151 157 166 172 178 186 197 208 216 223 226 228 229 232 233 234 236 237 238 240 241 243 245 246 247 248 248 249 251 251 253 254 255 257 260 262 264 265 266 266 267 267 267 267 267 268 270 271 273 275 276 276 275 273 270 268
227 225 211 211 220 229 233 226 211 200 199 207 217 216 212 211 208 189 175 163 146 135 132 131 130 125 123 127 130 130 131 135 139 144 151 161 179 199 213 222 229 233 235 238 240 242 244 246 247 248 248 247 246 246 246 247 249 250 252 254 256 258 260 261 263 264 264 264 263 262 263 263 263 264 266 267 270 273 276 279 284 287 289 288 282 275 270
216 215 207 210 219 228 231 216 193 182 184 192 206 215 213 208 202 185 169 161 153 143 131 126 129 123 115 118 125 125 122 123 127 131 140 159 182 200 211 221 228 234 241 246 248 248 249 250 250 251 251 251 250 249 249 251 253 255 256 257 258 259 260 260 260 259 257 257 258 259 260 261 263 267 272 276 279 280 282 285 289 294 299 298 291 283 275
200 207 208 210 210 211 211 197 180 176 184 191 202 217 216 208 206 207 196 171 148 127 104 94 110 116 114 119 127 128 125 125 130 138 146 158 171 187 201 212 222 232 242 248 250 249 248 247 245 244 244 246 248 248 248 249 250 251 252 251 250 250 252 253 255 258 262 267 271 271 269 268 273 282 287 289 289 288 290 294 298 303 307 307 302 298 291
183 198 207 204 193 191 196 193 181 177 182 190 201 215 216 211 213 220 226 224 218 228 263 296 5 83 157 174 157 141 136 135 137 140 143 149 159 175 190 199 211 224 233 237 240 241 240 238 237 233 232 233 235 237 239 239 239 238 236 235 235 239 247 257 268 277 286 289 287 283 281 284 291 296 297 297 297 298 301 305 308 313 317 319 319 314 301
198 196 197 193 187 185 188 188 186 185 185 189 198 207 209 208 212 220 228 232 234 238 245 254 263 238 200 196 192 173 160 156 151 147 146 150 158 169 178 187 199 212 219 224 228 228 226 226 227 226 225 223 222 222 223 224 227 229 229 233 241 249 259 271 282 291 298 299 295 292 293 298 302 303 302 305 308 311 312 313 314 320 327 332 340 348 348
216 209 203 194 187 185 184 182 186 194 192 185 189 198 202 200 200 206 214 218 221 223 222 219 214 204 194 192 193 191 188 185 176 169 171 176 179 185 192 193 195 200 206 212 216 216 212 212 214 219 226 228 228 230 233 232 234 238 241 247 257 264 270 278 285 293 299 300 299 300 303 306 309 310 313 320 323 323 323 320 318 325 333 336 342 358 12
204 206 206 199 191 187 185 185 189 197 199 190 184 188 194 192 185 185 192 199 201 202 203 200 197 195 193 193 196 204 212 211 204 206 214 219 222 225 225 218 213 213 216 220 222 219 213 207 202 207 227 244 249 251 251 249 249 250 253 257 262 266 271 278 284 289 294 297 300 304 307 309 312 315 322 331 332 330 332 332 328 331 341 343 337 340 357
184 186 190 193 192 189 189 192 195 198 201 198 190 186 189 191 187 183 183 186 186 187 191 193 194 193 193 195 200 207 212 212 216 224 227 228 231 231 229 228 227 228 231 234 234 233 229 224 220 221 236 260 270 270 267 262 258 257 257 260 264 268 273 280 285 289 291 294 298 303 305 305 308 313 321 333 336 332 334 341 341 341 348 352 350 347 354
169 179 184 187 187 186 187 193 196 197 199 199 196 194 193 193 190 186 181 179 180 183 187 189 191 191 191 191 192 194 198 205 212 216 217 219 222 223 224 226 227 229 233 237 239 239 237 234 233 234 239 251 262 269 270 269 267 266 266 266 268 272 276 282 287 289 290 293 297 302 305 304 305 311 317 324 331 332 331 336 343 349 356 1 3 4 8
151 151 162 173 179 180 180 182 184 187 189 189 189 190 189 187 185 183 178 174 175 178 179 181 184 185 181 180 181 184 189 195 199 202 205 207 207 209 213 217 218 222 230 236 239 243 244 243 243 244 245 246 249 254 259 262 263 264 265 264 266 269 271 276 281 283 286 292 296 296 297 298 301 308 314 316 318 327 332 332 333 341 355 8 16 21 22
139 135 139 149 155 158 159 157 156 161 170 176 178 178 178 176 173 169 165 164 167 169 169 168 169 167 163 163 167 171 173 173 174 177 180 183 186 191 196 198 200 207 214 218 229 242 246 248 250 253 253 252 252 251 252 253 253 255 257 258 259 262 263 266 273 279 285 293 296 292 290 292 294 297 303 307 309 312 318 327 329 325 326 356 29 39 36
129 129 132 136 137 141 148 154 155 158 163 168 168 168 167 165 162 161 160 159 162 165 164 159 154 149 145 146 148 148 145 142 141 144 146 150 156 163 172 178 181 177 167 159 170 220 241 251 260 264 265 265 263 259 257 255 254 255 257 258 258 261 262 265 271 279 284 288 290 291 290 290 290 290 290 292 295 296 296 299 305 302 282 241 168 117 120
118 123 133 141 145 149 154 155 151 149 151 153 155 157 160 160 161 164 163 159 157 157 152 143 138 136 135 135 134 130 125 125 127 128 130 134 140 148 157 159 151 138 126 122 132 157 205 259 272 275 278 281 279 276 273 270 267 265 266 267 267 269 272 274 278 283 286 287 287 287 286 282 281 286 289 287 284 285 287 287 287 284 271 238 210 209 205
97 103 112 121 128 137 145 148 145 143 145 146 144 146 150 152 153 155 153 148 143 138 129 123 123 124 124 125 124 121 119 120 121 122 127 132 136 145 154 146 132 121 114 111 113 106 68 298 273 274 278 283 289 291 292 291 288 281 276 274 274 274 276 280 283 286 292 297 298 296 292 285 280 280 282 283 281 281 281 275 268 264 258 247 240 239 229
71 76 81 84 88 97 110 118 120 121 123 122 121 121 123 123 123 124 124 122 119 115 111 109 110 111 113 117 121 120 119 120 120 125 137 143 143 150 157 141 122 114 110 103 100 95 65 352 303 296 290 288 302 319 330 333 327 314 298 288 284 280 280 285 289 292 297 303 308 309 307 301 296 288 282 279 280 280 275 268 262 257 248 241 241 243 228
58 61 65 66 67 70 75 79 83 90 95 95 94 94 96 98 99 101 104 105 105 105 104 107 110 110 110 113 117 118 118 118 118 122 129 129 128 136 138 124 113 110 108 103 103 120 300 310 314 329 346 348 349 358 3 358 354 346 333 322 312 306 302 300 302 305 305 303 302 303 304 305 305 301 293 287 285 281 272 265 265 264 257 248 244 242 230
60 60 62 63 64 66 68 69 70 73 75 75 73 74 75 77 79 83 88 92 94 95 98 102 107 107 104 101 100 98 96 94 92 89 83 78 79 93 98 90 82 75 69 56 12 335 326 322 324 334 343 339 334 331 328 323 320 319 320 317 312 313 316 309 301 303 309 308 304 301 301 303 304 301 297 295 297 296 287 274 267 264 260 253 246 237 227
59 60 61 63 66 67 68 69 70 69 69 69 70 71 71 69 70 71 73 77 81 84 85 86 89 92 92 91 88 84 80 79 78 78 76 74 79 85 81 73 59 41 29 10 346 333 327 325 327 329 326 321 318 316 313 314 313 309 307 308 311 314 318 320 314 306 306 309 312 310 306 303 303 301 298 295 295 298 303 298 282 264 254 250 246 233 221
60 61 62 62 63 63 63 62 63 63 62 62 63 64 64 63 63 63 63 65 71 75 78 79 81 80 79 77 75 74 75 78 80 81 85 90 90 84 76 66 51 34 19 358 340 331 326 324 324 320 314 311 310 309 308 309 311 311 309 308 307 309 312 315 318 320 316 310 310 311 308 303 300 298 298 296 294 298 305 307 298 279 258 244 237 230 224
57 58 58 58 58 58 58 57 57 59 59 58 57 56 54 51 47 46 46 48 49 52 55 61 63 60 54 52 51 51 53 57 58 56 57 61 63 60 52 38 21 6 353 343 338 334 331 328 326 322 317 314 310 308 307 306 305 306 308 307 305 307 309 310 311 314 317 316 312 307 303 300 296 292 290 291 295 303 312 314 310 306 285 232 212 211 214
47 48 50 51 52 52 51 48 46 46 50 52 52 51 49 45 37 30 28 28 28 27 28 32 35 33 31 29 26 25 27 30 28 22 22 28 28 21 12 1 352 341 336 335 334 331 329 326 322 319 317 316 313 311 310 309 307 306 307 307 306 306 305 305 305 307 309 313 315 313 309 302 293 283 278 277 276 279 288 291 286 286 274 227 205 200 201
35 35 36 37 36 33 30 26 22 23 31 38 37 33 36 36 26 12 5 6 5 3 6 12 14 12 11 11 9 8 8 6 0 357 359 1 359 355 352 349 345 339 335 333 331 329 328 327 324 318 314 312 310 309 309 308 309 309 308 308 308 308 306 304 303 301 300 301 303 305 305 305 299 287 277 271 264 256 255 256 254 250 251 242 226 215 211
23 21 18 16 15 13 12 9 5 5 11 14 9 4 8 10 353 333 325 325 328 336 346 351 350 349 350 351 350 349 347 345 345 348 348 344 341 339 337 334 332 330 328 327 327 327 327 326 324 322 319 315 312 310 308 306 305 306 306 305 306 306 306 305 304 302 301 300 299 297 297 297 297 292 285 277 266 256 249 245 243 241 239 236 235 233 227
11 10 9 8 8 6 5 3 0 360 359 355 348 343 336 318 302 299 302 306 312 319 325 328 330 332 333 332 331 331 331 331 333 334 332 329 327 327 326 325 324 324 324 322 322 321 321 321 320 319 318 317 316 314 313 310 306 304 302 302 301 300 300 300 300 299 298 297 296 295 293 291 288 286 285 282 274 265 258 251 248 247 242 232 231 237 234
8 9 9 7 6 7 6 3 359 356 353 349 343 335 320 301 294 294 295 298 304 310 315 319 321 320 319 318 320 320 320 321 323 324 324 324 324 324 323 323 322 321 320 320 320 319 319 319 318 317 316 316 315 313 312 311 309 305 302 300 298 296 295 294 293 292 291 289 288 287 286 284 282 280 279 277 274 271 267 261 256 254 251 245 239 239 236
Height
3038 3040 3043 3043 3044 3045 3047 3049 3051 3053 3056 3056 3057 3058 3059 3061 3060 3057 3060 3065 3064 3064 3071 3075 3078 3082 3083 3085 3086 3087 3088 3089 3090 3092 3093 3094 3096 3097 3098 3099 3099 3100 3101 3102 3103 3104 3105 3105 3107 3109 3111 3114 3116 3119 3122 3124 3127 3130 3132 3134 3137 3139 3141 3142 3144 3146 3149 3150 3152 3153 3154 3156 3157 3158 3160 3161 3161 3162 3163 3164 3166 3167 3169 3170 3171 3172 3174
3038 3039 3041 3042 3042 3043 3043 3045 3047 3049 3051 3052 3052 3054 3056 3056 3056 3057 3061 3062 3061 3064 3068 3071 3075 3079 3080 3082 3083 3084 3086 3087 3088 3089 3090 3091 3093 3094 3095 3096 3097 3098 3099 3100 3101 3102 3103 3103 3104 3106 3109 3111 3114 3116 3119 3121 3123 3125 3128 3130 3133 3135 3136 3138 3140 3143 3145 3147 3148 3149 3150 3152 3153 3155 3157 3158 3158 3159 3160 3161 3162 3164 3165 3166 3167 3169 3171
3037 3038 3039 3040 3040 3040 3040 3041 3043 3045 3046 3047 3048 3049 3052 3054 3055 3057 3059 3059 3058 3062 3066 3069 3072 3075 3076 3078 3080 3082 3084 3085 3085 3086 3087 3088 3090 3091 3092 3093 3095 3096 3096 3097 3098 3099 3101 3101 3102 3104 3106 3108 3111 3113 3116 3118 3120 3122 3124 3126 3129 3131 3132 3134 3137 3140 3142 3143 3144 3146 3147 3148 3150 3151 3153 3155 3155 3156 3157 3158 3159 3160 3161 3162 3164 3165 3167
3035 3036 3038 3037 3037 3037 3037 3037 3039 3041 3042 3043 3044 3047 3049 3051 3053 3055 3056 3055 3056 3060 3065 3067 3069 3071 3073 3074 3076 3078 3079 3081 3082 3083 3084 3085 3087 3088 3089 3090 3091 3093 3094 3095 3096 3097 3098 3099 3100 3102 3104 3106 3108 3110 3112 3115 3117 3119 3120 3122 3125 3127 3129 3131 3133 3136 3138 3139 3141 3142 3143 3145 3146 3147 3149 3151 3152 3152 3153 3155 3156 3157 3157 3159 3160 3162 3163
3034 3035 3036 3036 3036 3036 3034 3033 3035 3037 3038 3039 3042 3043 3045 3048 3051 3052 3052 3053 3055 3059 3063 3064 3065 3067 3069 3070 3073 3074 3075 3077 3078 3079 3081 3082 3083 3085 3086 3087 3088 3089 3091 3092 3093 3094 3095 3096 3098 3099 3101 3102 3105 3107 3110 3112 3113 3115 3117 3119 3121 3123 3125 3127 3129 3132 3134 3135 3137 3138 3139 3141 3142 3144 3145 3146 3147 3149 3150 3152 3153 3153 3154 3155 3157 3158 3159
3034 3034 3035 3036 3036 3033 3029 3029 3032 3033 3035 3037 3038 3039 3042 3046 3048 3049 3050 3052 3054 3056 3058 3060 3062 3063 3064 3067 3069 3070 3071 3073 3074 3076 3077 3079 3080 3081 3082 3083 3085 3086 3087 3089 3090 3091 3092 3093 3095 3096 3097 3099 3102 3104 3106 3107 3109 3111 3114 3116 3118 3120 3122 3124 3126 3128 3130 3132 3133 3134 3136 3138 3139 3140 3141 3142 3143 3145 3147 3148 3149 3149 3150 3152 3153 3154 3155
3034 3034 3035 3036 3032 3027 3026 3027 3029 3031 3032 3034 3034 3036 3040 3043 3044 3046 3047 3049 3051 3053 3055 3057 3059 3060 3061 3062 3064 3066 3068 3069 3071 3072 3074 3075 3076 3077 3078 3079 3081 3082 3084 3085 3086 3088 3089 3090 3091 3093 3094 3097 3098 3100 3102 3104 3106 3108 3110 3112 3114 3116 3118 3120 3122 3124 3126 3128 3129 3131 3132 3134 3135 3136 3137 3138 3139 3141 3142 3144 3145 3146 3147 3148 3149 3150 3152
3032 3033 3034 3031 3025 3022 3024 3026 3027 3029 3030 3030 3032 3034 3036 3038 3040 3041 3042 3045 3048 3050 3052 3055 3056 3057 3057 3058 3059 3061 3064 3066 3068 3069 3070 3072 3073 3074 3075 3076 3077 3079 3080 3082 3083 3084 3085 3086 3088 3090 3092 3093 3095 3097 3098 3100 3102 3104 3106 3108 3110 3112 3114 3116 3118 3120 3122 3124 3126 3127 3129 3130 3130 3132 3133 3134 3135 3136 3137 3140 3141 3142 3143 3144 3145 3146 3148
3029 3031 3029 3025 3022 3022 3023 3023 3025 3027 3027 3028 3029 3030 3032 3034 3035 3036 3038 3042 3045 3047 3049 3052 3053 3053 3053 3053 3054 3057 3060 3062 3064 3066 3067 3068 3069 3071 3072 3073 3074 3075 3077 3078 3080 3081 3082 3083 3085 3087 3088 3090 3091 3093 3095 3097 3099 3101 3102 3104 3106 3108 3110 3112 3115 3116 3118 3120 3122 3123 3124 3125 3126 3127 3128 3129 3131 3132 3133 3135 3136 3138 3139 3140 3141 3142 3143
3026 3028 3026 3023 3022 3021 3019 3021 3024 3025 3025 3025 3026 3026 3028 3030 3031 3032 3035 3039 3042 3045 3047 3049 3050 3050 3049 3048 3050 3055 3057 3058 3060 3062 3064 3065 3066 3068 3069 3070 3071 3072 3074 3075 3076 3077 3079 3080 3081 3083 3085 3086 3088 3090 3092 3094 3095 3097 3099 3101 3103 3105 3107 3109 3111 3113 3114 3116 3117 3119 3120 3121 3122 3123 3124 3126 3127 3128 3129 3130 3132 3134 3135 3136 3137 3138 3139
3023 3024 3022 3018 3017 3017 3017 3020 3022 3023 3023 3023 3024 3024 3024 3025 3027 3029 3033 3037 3039 3042 3044 3045 3047 3046 3045 3045 3050 3054 3055 3055 3057 3059 3060 3062 3064 3065 3066 3067 3068 3069 3070 3072 3073 3074 3076 3077 3078 3080 3081 3083 3085 3087 3089 3091 3092 3094 3096 3098 3100 3102 3103 3105 3107 3109 3110 3112 3114 3115 3116 3117 3118 3119 3120 3122 3123 3124 3125 3126 3128 3130 3131 3132 3132 3133 3134
3019 3020 3017 3014 3013 3014 3016 3019 3021 3022 3022 3022 3023 3023 3021 3021 3023 3026 3030 3034 3036 3038 3040 3041 3042 3042 3042 3046 3049 3051 3052 3053 3054 3055 3057 3059 3060 3062 3063 3064 3065 3066 3067 3069 3070 3072 3073 3074 3075 3076 3078 3080 3082 3084 3086 3087 3089 3091 3094 3095 3097 3098 3099 3101 3103 3104 3107 3109 3110 3112 3113 3113 3115 3116 3117 3118 3118 3119 3120 3122 3123 3124 3126 3127 3128 3129 3130
3017 3018 3015 3012 3010 3010 3014 3019 3020 3020 3021 3022 3021 3019 3018 3020 3022 3023 3027 3030 3032 3034 3036 3037 3039 3039 3041 3044 3047 3047 3048 3050 3051 3052 3054 3055 3057 3059 3060 3061 3062 3063 3064 3066 3067 3069 3071 3072 3073 3074 3075 3076 3078 3080 3082 3084 3086 3089 3090 3091 3092 3093 3095 3096 3098 3100 3103 3105 3107 3108 3109 3110 3111 3112 3113 3114 3115 3115 3116 3117 3118 3119 3120 3122 3123 3123 3124
3014 3015 3014 3012 3009 3007 3012 3018 3019 3019 3020 3019 3016 3016 3018 3020 3020 3022 3024 3027 3029 3031 3032 3034 3035 3037 3038 3040 3043 3044 3045 3046 3048 3049 3050 3052 3054 3056 3057 3059 3060 3060 3061 3063 3065 3066 3068 3069 3070 3071 3072 3073 3075 3076 3078 3080 3082 3084 3085 3087 3088 3089 3091 3093 3095 3097 3099 3101 3103 3104 3105 3106 3107 3108 3109 3109 3110 3110 3111 3112 3112 3113 3114 3116 3116 3117 3117
3011 3012 3012 3010 3007 3005 3010 3017 3018 3017 3017 3015 3014 3016 3018 3018 3019 3020 3022 3025 3027 3028 3029 3030 3032 3033 3034 3036 3039 3040 3042 3043 3044 3045 3047 3049 3050 3052 3054 3056 3057 3058 3059 3060 3062 3063 3065 3066 3067 3069 3070 3071 3072 3073 3074 3076 3078 3079 3081 3083 3085 3086 3088 3089 3091 3093 3095 3097 3099 3101 3102 3102 3103 3104 3104 3105 3105 3106 3106 3107 3107 3108 3109 3110 3110 3111 3111
3007 3007 3005 3005 3005 3006 3010 3015 3016 3015 3014 3013 3013 3015 3016 3017 3018 3018 3019 3021 3024 3025 3026 3027 3028 3029 3031 3033 3034 3036 3038 3039 3040 3042 3043 3045 3047 3049 3051 3053 3055 3056 3057 3058 3059 3061 3062 3063 3065 3066 3067 3068 3069 3070 3072 3073 3075 3076 3078 3080 3081 3083 3084 3086 3087 3089 3091 3093 3094 3096 3097 3098 3098 3098 3099 3100 3101 3101 3102 3103 3103 3103 3104 3105 3105 3105 3105
3000 2999 2998 3001 3004 3006 3008 3010 3012 3012 3011 3011 3011 3013 3014 3016 3016 3016 3016 3018 3020 3021 3022 3023 3024 3026 3027 3029 3030 3032 3034 3035 3037 3038 3040 3042 3044 3046 3048 3050 3051 3053 3055 3056 3057 3058 3059 3060 3062 3063 3064 3066 3067 3068 3069 3071 3072 3073 3075 3076 3078 3079 3080 3081 3083 3084 3086 3087 3088 3090 3091 3092 3092 3094 3095 3095 3096 3097 3098 3098 3098 3099 3100 3100 3100 3101 3101
2996 2994 2996 3000 3004 3005 3006 3007 3008 3009 3009 3009 3010 3011 3012 3013 3013 3013 3013 3014 3016 3018 3019 3020 3021 3022 3023 3025 3027 3028 3030 3032 3034 3036 3038 3039 3041 3043 3045 3047 3048 3050 3052 3053 3054 3055 3057 3058 3059 3060 3061 3063 3064 3065 3066 3068 3069 3070 3072 3073 3074 3076 3077 3078 3079 3080 3081 3083 3084 3085 3086 3087 3088 3089 3090 3090 3091 3092 3093 3093 3094 3094 3095 3095 3095 3095 3096
2994 2992 2994 2998 3001 3002 3003 3005 3006 3007 3007 3007 3008 3009 3010 3011 3011 3010 3010 3011 3012 3014 3015 3016 3017 3019 3020 3022 3024 3026 3028 3030 3032 3034 3035 3037 3039 3040 3042 3044 3045 3047 3048 3050 3051 3053 3054 3055 3056 3057 3058 3059 3061 3062 3063 3064 3066 3067 3068 3070 3071 3072 3073 3074 3075 3076 3078 3079 3080 3081 3082 3083 3083 3084 3084 3085 3086 3086 3087 3088 3088 3088 3088 3089 3089 3089 3089
2991 2990 2992 2996 2997 2998 2999 3000 3002 3004 3005 3006 3007 3008 3008 3008 3008 3008 3008 3009 3010 3010 3011 3013 3014 3016 3017 3019 3021 3024 3026 3028 3030 3032 3033 3034 3036 3038 3039 3041 3042 3044 3045 3046 3048 3049 3051 3052 3053 3054 3055 3056 3057 3058 3060 3061 3062 3063 3065 3066 3067 3068 3069 3071 3072 3073 3074 3075 3076 3076 3077 3078 3078 3078 3079 3079 3079 3080 3081 3082 3081 3081 3081 3081 3081 3082 3083
2986 2988 2991 2994 2995 2995 2996 2997 2998 3001 3003 3005 3006 3007 3007 3007 3007 3007 3008 3008 3009 3009 3009 3010 3011 3014 3015 3017 3019 3021 3023 3026 3028 3029 3030 3031 3033 3034 3036 3038 3039 3040 3041 3043 3044 3045 3047 3048 3049 3050 3051 3053 3054 3055 3056 3058 3059 3060 3061 3062 3063 3064 3065 3067 3068 3069 3070 3070 3071 3072 3072 3072 3073 3073 3073 3072 3072 3073 3074 3074 3073 3073 3072 3072 3073 3074 3074
2982 2985 2989 2991 2991 2991 2993 2994 2995 2998 3002 3004 3005 3006 3007 3007 3006 3005 3006 3007 3008 3008 3008 3008 3009 3011 3013 3015 3017 3019 3021 3024 3025 3026 3027 3028 3029 3030 3032 3034 3035 3037 3038 3039 3041 3042 3043 3044 3045 3047 3048 3049 3050 3052 3053 3054 3055 3056 3057 3058 3060 3060 3061 3062 3063 3064 3065 3066 3066 3067 3067 3067 3067 3067 3067 3066 3066 3066 3067 3066 3066 3065 3064 3064 3065 3065 3064
2979 2982 2986 2987 2987 2987 2989 2991 2992 2994 2999 3003 3004 3005 3006 3006 3005 3003 3003 3005 3007 3007 3007 3008 3008 3010 3011 3012 3014 3017 3019 3021 3023 3024 3024 3025 3026 3027 3029 3031 3032 3034 3035 3036 3038 3039 3040 3041 3042 3044 3045 3046 3047 3048 3049 3050 3051 3052 3053 3054 3055 3056 3057 3058 3059 3060 3061 3061 3061 3061 3061 3061 3061 3060 3060 3060 3060 3059 3058 3058 3057 3057 3057 3056 3056 3056 3055
2975 2978 2981 2982 2983 2984 2986 2988 2989 2990 2995 2999 3002 3003 3004 3004 3005 3003 3002 3003 3005 3006 3006 3007 3007 3008 3009 3010 3011 3014 3016 3018 3020 3021 3022 3022 3024 3026 3027 3029 3030 3032 3033 3034 3035 3036 3038 3039 3040 3041 3042 3043 3044 3045 3046 3047 3047 3048 3049 3050 3051 3052 3053 3053 3054 3055 3055 3055 3055 3055 3055 3055 3054 3054 3054 3053 3053 3052 3051 3050 3049 3049 3048 3047 3047 3047 3046
2970 2972 2975 2978 2979 2981 2983 2985 2986 2987 2991 2994 2998 3001 3002 3002 3003 3004 3002 3003 3004 3005 3005 3006 3006 3007 3008 3008 3009 3011 3014 3016 3017 3018 3018 3020 3021 3023 3025 3027 3029 3030 3031 3032 3033 3034 3035 3036 3037 3038 3039 3040 3041 3041 3042 3042 3043 3044 3045 3045 3046 3047 3047 3048 3048 3048 3048 3048 3049 3049 3049 3048 3048 3047 3047 3046 3045 3044 3043 3042 3041 3040 3039 3037 3037 3037 3037
2966 2967 2970 2973 2975 2977 2979 2981 2982 2984 2988 2990 2994 2998 3001 3000 3001 3002 3002 3002 3003 3004 3004 3004 3005 3006 3007 3007 3007 3009 3012 3014 3015 3016 3016 3017 3019 3021 3023 3025 3027 3028 3029 3030 3030 3031 3032 3033 3034 3035 3036 3036 3037 3037 3038 3038 3039 3039 3040 3040 3041 3041 3042 3042 3042 3042 3042 3042 3042 3042 3042 3042 3041 3041 3040 3039 3037 3036 3036 3035 3034 3032 3031 3029 3028 3026 3025
2962 2963 2966 2969 2971 2973 2976 2977 2979 2981 2985 2988 2991 2995 2998 2999 2999 3000 3001 3001 3002 3002 3003 3004 3005 3006 3006 3006 3006 3008 3010 3012 3013 3013 3013 3014 3016 3018 3020 3022 3024 3025 3026 3026 3027 3028 3028 3030 3031 3031 3032 3032 3033 3033 3034 3034 3034 3035 3035 3036 3036 3036 3036 3036 3036 3037 3037 3037 3037 3037 3036 3036 3035 3034 3033 3032 3031 3029 3028 3026 3025 3024 3022 3020 3017 3014 3011
2958 2960 2963 2966 2968 2970 2972 2974 2976 2978 2981 2984 2988 2990 2993 2996 2999 2999 2999 2999 3000 3001 3003 3004 3005 3006 3006 3005 3005 3007 3009 3011 3012 3011 3011 3012 3013 3016 3018 3019 3021 3022 3023 3023 3023 3024 3025 3026 3027 3027 3028 3028 3029 3030 3030 3030 3030 3031 3031 3031 3031 3031 3032 3032 3032 3032 3032 3032 3032 3032 3031 3030 3030 3029 3027 3026 3025 3023 3021 3019 3017 3015 3012 3009 3005 3001 2996
2955 2957 2959 2963 2965 2967 2970 2972 2974 2976 2978 2981 2984 2986 2989 2993 2997 2997 2997 2997 2998 3000 3003 3004 3005 3005 3005 3004 3005 3007 3009 3010 3010 3009 3009 3011 3013 3015 3016 3018 3019 3020 3020 3020 3020 3020 3021 3022 3023 3024 3024 3024 3025 3026 3026 3026 3026 3027 3027 3027 3027 3027 3028 3028 3028 3028 3029 3029 3028 3028 3027 3026 3025 3024 3023 3021 3019 3017 3015 3013 3010 3007 3003 2998 2992 2985 2979
2953 2954 2957 2960 2962 2964 2967 2969 2970 2972 2975 2978 2981 2983 2985 2989 2994 2995 2995 2995 2997 3000 3003 3005 3004 3004 3004 3005 3006 3008 3009 3009 3009 3008 3009 3010 3012 3014 3015 3016 3017 3017 3017 3017 3018 3018 3019 3019 3020 3020 3021 3021 3022 3022 3022 3023 3023 3023 3023 3023 3023 3024 3024 3025 3025 3026 3026 3025 3025 3024 3023 3022 3021 3020 3019 3016 3014 3012 3009 3006 3004 3001 2995 2987 2979 2970 2961
2951 2953 2956 2958 2960 2962 2966 2969 2970 2971 2973 2977 2979 2981 2983 2986 2990 2992 2993 2993 2996 3000 3003 3004 3004 3004 3004 3006 3007 3008 3008 3008 3008 3008 3008 3010 3012 3014 3014 3014 3014 3015 3015 3016 3017 3017 3018 3018 3018 3018 3018 3018 3019 3019 3020 3020 3020 3020 3020 3020 3020 3021 3021 3022 3022 3023 3022 3022 3021 3020 3019 3019 3018 3017 3015 3012 3010 3007 3005 3002 3000 2995 2988 2980 2971 2959 2949
2950 2952 2954 2956 2958 2962 2966 2969 2971 2972 2974 2976 2978 2981 2982 2985 2987 2990 2991 2993 2995 2999 3002 3003 3004 3004 3005 3006 3008 3008 3008 3008 3007 3007 3009 3011 3012 3013 3013 3012 3013 3013 3015 3016 3017 3017 3017 3017 3017 3016 3016 3017 3017 3017 3018 3018 3018 3018 3017 3017 3018 3018 3019 3019 3020 3020 3020 3019 3019 3017 3016 3016 3014 3013 3012 3009 3007 3005 3002 2999 2996 2991 2986 2979 2969 2957 2948
2950 2952 2953 2956 2958 2962 2965 2968 2971 2972 2974 2976 2978 2980 2982 2983 2986 2988 2990 2992 2995 2998 3000 3002 3003 3003 3004 3005 3006 3007 3008 3007 3007 3008 3009 3010 3011 3012 3012 3012 3012 3013 3014 3016 3016 3017 3017 3016 3015 3015 3015 3015 3016 3016 3017 3017 3016 3016 3015 3015 3015 3016 3016 3016 3017 3017 3017 3017 3016 3014 3013 3013 3011 3010 3009 3007 3005 3003 3001 2998 2995 2990 2986 2982 2974 2968 2965
2948 2951 2954 2957 2959 2962 2964 2967 2970 2971 2973 2975 2977 2979 2981 2983 2985 2987 2989 2991 2994 2996 2999 3000 3001 3002 3002 3003 3005 3006 3007 3007 3007 3008 3008 3009 3010 3011 3011 3011 3012 3013 3014 3015 3015 3015 3015 3014 3013 3013 3013 3014 3015 3015 3015 3015 3014 3014 3013 3013 3013 3013 3013 3014 3014 3014 3014 3014 3013 3012 3011 3010 3009 3008 3007 3005 3004 3002 3000 2998 2994 2989 2987 2985 2980 2978 2980
2948 2951 2954 2957 2959 2961 2964 2967 2970 2971 2973 2974 2976 2979 2981 2982 2984 2986 2988 2990 2992 2995 2996 2998 2999 3000 3000 3001 3003 3005 3006 3006 3007 3007 3008 3009 3009 3009 3009 3009 3010 3011 3013 3014 3014 3013 3012 3011 3011 3011 3011 3012 3012 3013 3013 3013 3013 3012 3012 3011 3011 3011 3011 3011 3011 3011 3011 3011 3010 3009 3008 3007 3006 3006 3005 3004 3003 3002 3000 2998 2995 2990 2988 2987 2985 2983 2984
2950 2952 2954 2957 2959 2962 2964 2967 2969 2971 2973 2974 2976 2979 2980 2982 2984 2986 2987 2989 2992 2993 2995 2996 2998 2999 3000 3001 3002 3004 3005 3005 3006 3007 3007 3007 3008 3008 3008 3008 3009 3010 3011 3011 3011 3010 3009 3008 3008 3008 3009 3009 3010 3011 3011 3011 3011 3010 3010 3009 3009 3009 3009 3009 3009 3009 3009 3009 3008 3007 3006 3005 3004 3004 3004 3003 3003 3002 3001 2999 2997 2994 2990 2988 2988 2987 2988
2951 2953 2955 2957 2960 2962 2964 2967 2969 2971 2972 2974 2977 2979 2980 2982 2984 2986 2987 2989 2991 2992 2994 2995 2997 2998 2999 3000 3001 3003 3004 3004 3005 3005 3005 3006 3006 3006 3006 3007 3007 3008 3009 3009 3008 3007 3007 3006 3005 3006 3006 3007 3008 3008 3009 3009 3009 3009 3008 3007 3007 3007 3007 3007 3007 3007 3007 3007 3007 3005 3004 3004 3003 3002 3002 3002 3002 3002 3002 3000 2998 2996 2994 2992 2991 2991 2991
2952 2954 2956 2958 2961 2964 2966 2967 2969 2971 2973 2974 2976 2978 2980 2982 2983 2985 2987 2988 2990 2992 2993 2994 2995 2997 2998 2999 3000 3001 3002 3003 3003 3003 3004 3004 3004 3005 3005 3006 3006 3007 3007 3006 3006 3005 3004 3003 3003 3003 3004 3004 3005 3006 3006 3007 3007 3007 3007 3006 3005 3005 3005 3006 3006 3006 3005 3005 3005 3004 3003 3003 3002 3001 3000 3000 3000 3001 3001 3001 2999 2997 2996 2995 2995 2994 2994
2955 2957 2958 2960 2963 2965 2967 2969 2971 2972 2973 2975 2976 2978 2980 2982 2983 2985 2986 2987 2989 2992 2993 2993 2995 2997 2998 2998 2999 3000 3001 3001 3002 3002 3002 3003 3004 3004 3004 3004 3005 3005 3005 3005 3005 3003 3002 3000 3000 3001 3001 3002 3003 3004 3005 3005 3005 3005 3005 3004 3004 3004 3004 3004 3004 3004 3003 3003 3003 3003 3002 3001 3001 3000 3000 2999 2999 2999 2999 3000 2999 2998 2997 2997 2997 2997 2997
2958 2960 2962 2964 2965 2967 2969 2971 2973 2974 2975 2977 2978 2979 2981 2982 2983 2984 2984 2986 2989 2991 2993 2994 2995 2996 2997 2998 2998 2999 3000 3000 3001 3001 3002 3002 3002 3002 3003 3003 3003 3004 3004 3004 3002 3001 3000 3000 3000 3000 3000 3001 3002 3003 3003 3004 3004 3003 3003 3003 3002 3002 3002 3002 3002 3002 3002 3001 3001 3001 3000 2999 2999 2999 2999 2999 2999 2999 2998 2998 2998 2998 2998 2998 2998 2998 2999
2961 2963 2965 2966 2967 2968 2970 2972 2974 2975 2977 2979 2980 2980 2982 2983 2983 2983 2984 2985 2988 2991 2992 2993 2994 2995 2996 2997 2998 2998 2999 3000 3000 3001 3001 3001 3001 3001 3002 3002 3002 3002 3002 3001 3000 3000 3000 3000 3001 3000 3000 3000 3001 3002 3003 3003 3002 3002 3001 3001 3001 3000 3000 3000 3000 3000 3000 3000 2999 2998 2998 2997 2996 2997 2997 2998 2998 2998 2998 2998 2998 2998 2999 2998 2998 2998 2999
2968 2969 2969 2970 2971 2971 2972 2973 2974 2975 2976 2978 2978 2978 2980 2982 2982 2983 2985 2987 2989 2991 2992 2993 2995 2996 2997 2998 2998 2999 2999 2999 3000 3000 3000 3000 3000 3001 3001 3002 3002 3001 3001 3001 3001 3001 3001 3002 3001 3000 3000 3000 3001 3002 3002 3002 3001 3001 3000 3000 2999 2998 2998 2998 2998 2998 2998 2997 2997 2996 2995 2995 2995 2995 2996 2996 2997 2997 2996 2996 2996 2997 2998 2999 2999 2999 2999
2977 2976 2976 2976 2977 2977 2977 2978 2979 2979 2979 2980 2980 2981 2983 2984 2986 2988 2990 2991 2993 2994 2994 2995 2996 2998 2999 2999 2999 2999 2999 2999 3000 3000 3000 3001 3001 3001 3001 3001 3001 3002 3002 3002 3002 3002 3002 3002 3001 3000 2999 3000 3001 3002 3002 3001 3001 3000 3000 2999 2998 2998 2997 2996 2996 2995 2995 2995 2994 2994 2993 2993 2993 2994 2994 2994 2995 2995 2994 2994 2994 2995 2996 2997 2998 2998 2999
2984 2984 2983 2983 2984 2984 2984 2985 2986 2986 2986 2987 2988 2988 2989 2990 2992 2994 2995 2996 2997 2998 2998 2998 2999 2999 3000 3000 3000 3000 3000 3000 3000 3001 3001 3002 3002 3002 3002 3002 3002 3002 3002 3003 3003 3002 3002 3001 3000 2999 2999 2999 3000 3001 3001 3001 3000 3000 2999 2998 2998 2997 2996 2995 2995 2994 2994 2993 2993 2992 2992 2992 2992 2992 2993 2993 2993 2993 2992 2992 2992 2992 2992 2993 2994 2995 2997
2991 2990 2990 2990 2991 2991 2991 2991 2992 2992 2993 2994 2994 2995 2995 2996 2998 2999 3001 3002 3002 3003 3002 3002 3001 3001 3001 3001 3001 3001 3001 3002 3002 3002 3002 3003 3002 3002 3002 3002 3002 3002 3002 3002 3002 3001 3000 3000 2999 2998 2998 2999 3000 3000 3000 3000 3000 2999 2998 2998 2997 2996 2995 2994 2993 2993 2993 2993 2992 2992 2991 2991 2991 2991 2991 2991 2991 2991 2991 2991 2990 2990 2990 2990 2991 2992 2994
2996 2996 2996 2996 2996 2996 2996 2996 2996 2997 2998 2998 2998 2999 2999 3001 3002 3004 3005 3006 3006 3006 3005 3004 3003 3002 3002 3002 3002 3003 3003 3002 3002 3002 3002 3002 3002 3002 3003 3003 3002 3002 3001 3001 3001 3000 2999 2998 2998 2997 2997 2998 2999 2999 2999 2999 2999 2998 2997 2997 2996 2995 2994 2993 2992 2992 2992 2992 2992 2992 2991 2991 2991 2991 2990 2990 2990 2990 2989 2989 2989 2988 2988 2988 2989 2990 2992
3001 3001 3000 3000 3000 3000 3000 3001 3001 3001 3001 3001 3001 3002 3003 3004 3005 3006 3007 3007 3007 3007 3006 3004 3003 3003 3003 3002 3002 3002 3002 3001 3001 3001 3002 3002 3002 3002 3002 3002 3002 3001 3001 3001 3001 3000 2999 2998 2997 2996 2996 2997 2997 2998 2998 2997 2997 2996 2996 2995 2995 2994 2993 2992 2991 2991 2991 2991 2991 2991 2991 2991 2991 2990 2990 2990 2990 2989 2989 2988 2987 2987 2987 2987 2987 2988 2989
3004 3004 3003 3003 3003 3003 3003 3004 3004 3004 3004 3004 3004 3005 3006 3006 3007 3007 3008 3008 3008 3007 3006 3005 3003 3003 3003 3002 3002 3001 3001 3000 3001 3002 3002 3002 3002 3002 3001 3001 3001 3000 3000 3000 3000 2999 2998 2997 2996 2995 2996 2996 2996 2996 2996 2996 2995 2994 2994 2993 2993 2992 2992 2991 2991 2990 2990 2990 2990 2990 2990 2990 2990 2990 2990 2990 2990 2989 2989 2988 2988 2988 2988 2988 2988 2987 2987
3007 3006 3006 3006 3006 3006 3005 3005 3005 3005 3005 3005 3006 3007 3007 3008 3008 3008 3009 3009 3008 3007 3006 3005 3003 3003 3002 3002 3001 3001 3001 3001 3002 3002 3002 3002 3002 3001 3001 3000 3000 2999 2999 2999 2999 2998 2997 2996 2995 2994 2994 2994 2994 2994 2994 2993 2993 2992 2992 2991 2990 2990 2990 2990 2990 2989 2989 2989 2989 2989 2989 2989 2989 2989 2989 2989 2989 2989 2989 2988 2988 2988 2988 2988 2988 2988 2988
3008 3008 3008 3007 3007 3007 3006 3006 3006 3006 3006 3007 3007 3007 3008 3008 3009 3009 3009 3008 3007 3006 3005 3004 3003 3002 3001 3001 3001 3001 3001 3002 3002 3002 3002 3001 3001 3001 3000 3000 2999 2999 2998 2998 2997 2996 2995 2994 2993 2993 2993 2993 2992 2992 2992 2991 2990 2990 2989 2988 2988 2988 2987 2987 2987 2988 2988 2988 2988 2988 2988 2988 2988 2988 2988 2988 2988 2988 2988 2988 2988 2988 2988 2988 2989 2988 2988
3009 3008 3008 3007 3007 3007 3007 3007 3007 3007 3007 3007 3008 3008 3008 3008 3008 3008 3008 3007 3006 3005 3003 3002 3001 3001 3000 3000 3000 3001 3001 3002 3002 3001 3001 3001 3000 3000 2999 2999 2998 2998 2997 2996 2995 2994 2993 2992 2991 2991 2991 2990 2990 2990 2989 2988 2988 2987 2987 2986 2985 2985 2985 2985 2985 2985 2985 2986 2986 2986 2986 2986 2987 2987 2987 2987 2987 2987 2987 2987 2987 2988 2988 2988 2988 2988 2988
3010 3010 3009 3008 3008 3008 3007 3007 3007 3007 3007 3007 3007 3007 3008 3008 3007 3007 3006 3005 3004 3003 3002 3002 3001 3001 3000 3001 3001 3001 3001 3001 3001 3000 3000 2999 2999 2998 2997 2997 2996 2996 2995 2994 2993 2992 2991 2990 2989 2989 2988 2988 2987 2987 2986 2985 2985 2984 2984 2984 2983 2982 2982 2982 2982 2982 2983 2983 2983 2984 2984 2984 2984 2985 2985 2985 2986 2986 2986 2986 2986 2986 2986 2987 2987 2987 2987